CPA547 RJTT-VHHH

Flight info

Callsign CPA547
Flight time N/A
Altitude 38000
Route LAXAS Y56 TOHME Y54 TURFY Y24 KOSHI A1 ELATO V522 ABBEY
Aircraft B77W/H-SDE1E2E3FGHIJ2J3J4J5M1RWXY/LB1D1

Departure

Time 2026-05-06 16:04
Airport Tokyo Haneda International Airport (RJTT)

Arrival

Time N/A
Airport Hong Kong International Airport (VHHH)
Time Latitude Longitude Altitude Speed Heading
2026-05-06 15:39 35.55897 139.78628 34 ft 0 kts 60°
2026-05-06 15:52 35.55896 139.78626 34 ft 2 kts 60°
2026-05-06 15:52 35.55892 139.78616 34 ft 1 kts 58°
2026-05-06 15:52 35.55882 139.78601 34 ft 2 kts 42°
2026-05-06 15:52 35.55870 139.78590 34 ft 2 kts 28°
2026-05-06 15:53 35.55857 139.78584 34 ft 2 kts 16°
2026-05-06 15:53 35.55842 139.78580 35 ft 2 kts
2026-05-06 15:53 35.55827 139.78581 35 ft 2 kts 349°
2026-05-06 15:53 35.55813 139.78586 34 ft 2 kts 336°
2026-05-06 15:54 35.55805 139.78590 34 ft 1 kts 329°
2026-05-06 15:54 35.55804 139.78592 34 ft 0 kts 329°
2026-05-06 15:56 35.55805 139.78590 34 ft 0 kts 329°
2026-05-06 15:56 35.55809 139.78587 34 ft 1 kts 330°
2026-05-06 15:57 35.55825 139.78578 34 ft 4 kts 332°
2026-05-06 15:57 35.55871 139.78546 34 ft 10 kts 330°
2026-05-06 15:57 35.55932 139.78502 34 ft 10 kts 329°
2026-05-06 15:57 35.55994 139.78458 34 ft 10 kts 328°
2026-05-06 15:58 35.56055 139.78413 34 ft 9 kts 329°
2026-05-06 15:58 35.56114 139.78372 34 ft 9 kts 330°
2026-05-06 15:58 35.56173 139.78330 34 ft 9 kts 331°
2026-05-06 15:58 35.56232 139.78290 34 ft 9 kts 332°
2026-05-06 15:59 35.56288 139.78250 34 ft 9 kts 327°
2026-05-06 15:59 35.56345 139.78214 34 ft 8 kts 358°
2026-05-06 15:59 35.56386 139.78258 34 ft 8 kts 60°
2026-05-06 15:59 35.56414 139.78317 34 ft 8 kts 59°
2026-05-06 16:00 35.56443 139.78377 34 ft 8 kts 59°
2026-05-06 16:00 35.56469 139.78438 34 ft 7 kts 61°
2026-05-06 16:00 35.56498 139.78494 34 ft 7 kts 58°
2026-05-06 16:00 35.56525 139.78551 34 ft 7 kts 60°
2026-05-06 16:01 35.56549 139.78606 34 ft 7 kts 64°
2026-05-06 16:01 35.56558 139.78662 34 ft 6 kts 115°
2026-05-06 16:01 35.56525 139.78700 34 ft 6 kts 150°
2026-05-06 16:01 35.56519 139.78705 34 ft 0 kts 149°
2026-05-06 16:03 35.56306 139.78854 35 ft 73 kts 150°
2026-05-06 16:03 35.55661 139.79317 35 ft 140 kts 149°
2026-05-06 16:04 35.54702 139.80005 370 ft 167 kts 153°
2026-05-06 16:04 35.53650 139.80734 1156 ft 171 kts 153°
2026-05-06 16:04 35.52881 139.81274 1702 ft 169 kts 153°
2026-05-06 16:04 35.51722 139.82092 2080 ft 188 kts 152°
2026-05-06 16:05 35.50551 139.82922 2466 ft 204 kts 152°
2026-05-06 16:05 35.49289 139.83817 2873 ft 220 kts 152°
2026-05-06 16:05 35.48032 139.84709 3304 ft 235 kts 152°
2026-05-06 16:05 35.46612 139.85704 3745 ft 251 kts 155°
2026-05-06 16:06 35.44889 139.86249 4383 ft 256 kts 181°
2026-05-06 16:06 35.43128 139.85794 5143 ft 257 kts 206°
2026-05-06 16:06 35.41634 139.84602 5904 ft 259 kts 217°
2026-05-06 16:06 35.40280 139.83308 6666 ft 260 kts 219°
2026-05-06 16:07 35.38829 139.81903 7425 ft 263 kts 219°
2026-05-06 16:07 35.37364 139.80490 8160 ft 266 kts 219°
2026-05-06 16:07 35.35902 139.79085 8904 ft 268 kts 219°
2026-05-06 16:07 35.34393 139.77635 9582 ft 272 kts 220°
2026-05-06 16:08 35.32870 139.76173 10268 ft 276 kts 219°
2026-05-06 16:08 35.31327 139.74692 10635 ft 292 kts 220°
2026-05-06 16:08 35.29709 139.73055 10955 ft 309 kts 223°
2026-05-06 16:08 35.28004 139.71243 11307 ft 327 kts 223°
2026-05-06 16:09 35.26837 139.70010 11523 ft 339 kts 222°
2026-05-06 16:09 35.24353 139.67407 12061 ft 359 kts 222°
2026-05-06 16:09 35.23709 139.66733 12194 ft 365 kts 222°
2026-05-06 16:09 35.20412 139.63295 13299 ft 377 kts 223°
2026-05-06 16:10 35.18412 139.61212 14164 ft 379 kts 223°
2026-05-06 16:10 35.16353 139.59067 15057 ft 383 kts 223°
2026-05-06 16:10 35.14332 139.56964 15960 ft 387 kts 223°
2026-05-06 16:10 35.12264 139.54813 16875 ft 390 kts 223°
2026-05-06 16:11 35.10272 139.52510 17750 ft 390 kts 230°
2026-05-06 16:11 35.08561 139.49808 18540 ft 393 kts 239°
2026-05-06 16:11 35.07244 139.46840 19335 ft 395 kts 247°
2026-05-06 16:11 35.06344 139.43701 20163 ft 396 kts 255°
2026-05-06 16:12 35.05761 139.40378 20978 ft 398 kts 257°
2026-05-06 16:12 35.05227 139.37047 21704 ft 401 kts 257°
2026-05-06 16:12 35.04698 139.33780 22325 ft 405 kts 256°
2026-05-06 16:12 35.04359 139.31703 22771 ft 406 kts 256°
2026-05-06 16:13 35.03596 139.27069 23773 ft 408 kts 256°
2026-05-06 16:13 35.03048 139.23764 24397 ft 411 kts 256°
2026-05-06 16:13 35.02606 139.21118 24939 ft 413 kts 256°
2026-05-06 16:13 35.01939 139.17127 25760 ft 416 kts 256°
2026-05-06 16:14 35.01334 139.13530 26478 ft 418 kts 256°
2026-05-06 16:14 35.00770 139.10175 27149 ft 420 kts 256°
2026-05-06 16:14 35.00164 139.06587 27818 ft 423 kts 256°
2026-05-06 16:14 34.99560 139.03015 28482 ft 426 kts 256°
2026-05-06 16:15 34.98963 138.99417 29181 ft 428 kts 258°
2026-05-06 16:15 34.98634 138.95744 29960 ft 430 kts 262°
2026-05-06 16:15 34.98444 138.92104 30755 ft 430 kts 263°
2026-05-06 16:15 34.98287 138.88989 31465 ft 428 kts 263°
2026-05-06 16:16 34.98123 138.85780 32226 ft 425 kts 263°
2026-05-06 16:16 34.97935 138.82155 33128 ft 419 kts 263°
2026-05-06 16:16 34.97751 138.78628 33918 ft 417 kts 263°
2026-05-06 16:16 34.97564 138.75073 34580 ft 417 kts 263°
2026-05-06 16:17 34.97376 138.71545 35297 ft 415 kts 263°
2026-05-06 16:17 34.97189 138.68036 36045 ft 411 kts 263°
2026-05-06 16:17 34.97003 138.64575 36764 ft 408 kts 263°
2026-05-06 16:17 34.96816 138.61114 37447 ft 404 kts 263°
2026-05-06 16:18 34.96629 138.57687 37974 ft 403 kts 263°
2026-05-06 16:18 34.96440 138.54260 38061 ft 405 kts 263°
2026-05-06 16:18 34.96062 138.47391 38060 ft 402 kts 263°
2026-05-06 16:19 34.95678 138.40520 38062 ft 402 kts 263°
2026-05-06 16:19 34.95291 138.33656 38073 ft 402 kts 263°
2026-05-06 16:20 34.94931 138.27324 38083 ft 403 kts 262°
2026-05-06 16:20 34.94527 138.20293 38086 ft 404 kts 263°
2026-05-06 16:21 34.94142 138.13647 38091 ft 404 kts 262°
2026-05-06 16:21 34.93739 138.06749 38077 ft 403 kts 262°
2026-05-06 16:22 34.93337 137.99945 38077 ft 397 kts 262°
2026-05-06 16:22 34.92935 137.93216 38082 ft 397 kts 263°
2026-05-06 16:23 34.92527 137.86455 38080 ft 399 kts 262°
2026-05-06 16:23 34.92116 137.79697 38079 ft 399 kts 262°
2026-05-06 16:24 34.91734 137.73465 38082 ft 400 kts 262°
2026-05-06 16:24 34.91051 137.66795 38089 ft 397 kts 253°
2026-05-06 16:25 34.89289 137.60622 38080 ft 397 kts 250°
2026-05-06 16:25 34.87390 137.54285 38078 ft 400 kts 250°
2026-05-06 16:26 34.85871 137.49228 38072 ft 399 kts 250°
2026-05-06 16:26 34.84407 137.44258 38071 ft 400 kts 250°
2026-05-06 16:27 34.82563 137.37781 38069 ft 401 kts 251°
2026-05-06 16:27 34.80898 137.31955 38080 ft 402 kts 250°
2026-05-06 16:28 34.79057 137.25536 38081 ft 401 kts 250°
2026-05-06 16:28 34.77259 137.19284 38072 ft 403 kts 250°
2026-05-06 16:29 34.75780 137.14157 38077 ft 403 kts 250°